Inquirer Daily News

Weather

Get conditions and forecasts for any City, State, ZIP code or Country:  
Trenton, NJ
on Wednesday, January 16, 2013

Wednesday
Previous Day Next Day
Daily Summary
 ActualAverageRecord
Temperature
Mean Temperature °F 31°F  
Max Temperature 37°F 39°F 63°F (1995)
Min Temperature 33°F 23°F -5°F (1893)
Degree Days
Heating Degree Days 30 34  
Month to date heating degree days 434 543  
Since 1 July heating degree days 2192 2438  
Cooling Degree Days 0 0  
Month to date cooling degree days 0 0  
Year to date cooling degree days 0 0  
Moisture
Dew Point 33°F   
Average Humidity 91    
Maximum Humidity 100    
Minimum Humidity 82    
Precipitation
Precipitation 0.73 in 0.09 in 1.14 in (1924)
Month to date precipitation 1.63 1.71  
Year to date precipitation 1.63 1.71  
Wind
Wind Speed 5 mph   
Max Wind Speed 16 mph   
Max Gust Speed 22 mph   
Visibility 4 miles   
Events Rain   

Key: T is trace of precipitation, MM is missing value
Source: NWS Daily Summary
Time(EST)TemperatureDew PointHumidity Pressure Visibility Wind DirectionWind SpeedGust SpeedPrecipitationEvents Conditions
12:53 AM 34.0°F 30.9°F 89% 30.16 in 5.0 miles NE 9.2 mph - 0.05 in Rain Light Rain
1:19 AM 33.8°F 30.2°F 87% 30.16 in 4.0 miles ENE 8.1 mph - 0.05 in Rain Rain
1:53 AM 34.0°F 30.9°F 89% 30.14 in 3.0 miles NE 5.8 mph - 0.11 in Rain Rain
2:04 AM 33.8°F 30.2°F 87% 30.14 in 4.0 miles ENE 9.2 mph - 0.02 in Rain Rain
2:27 AM 33.8°F 30.2°F 87% 30.14 in 4.0 miles ENE 8.1 mph - 0.06 in Rain Rain
2:42 AM 33.8°F 30.2°F 87% 30.11 in 3.0 miles ENE 11.5 mph 16.1 mph 0.10 in Rain Rain
2:53 AM 33.1°F 30.9°F 92% 30.10 in 4.0 miles ENE 10.4 mph - 0.13 in Rain Rain
3:00 AM 33.8°F 30.2°F 87% 30.11 in 4.0 miles ENE 8.1 mph - 0.02 in Rain Rain
4:53 AM 33.1°F 30.9°F 92% 30.08 in 5.0 miles East 5.8 mph - 0.13 in Rain Rain
5:53 AM 33.1°F 30.9°F 92% 30.05 in 6.0 miles East 4.6 mph - 0.07 in Rain Light Rain
6:53 AM 33.1°F 32.0°F 96% 30.04 in 7.0 miles ENE 5.8 mph - 0.01 in   Overcast
7:53 AM 33.1°F 32.0°F 96% 30.01 in 4.0 miles ENE 4.6 mph - 0.01 in   Overcast
8:03 AM 33.8°F 32.0°F 93% 30.03 in 4.0 miles ENE 4.6 mph - N/A   Overcast
8:53 AM 33.1°F 32.0°F 96% 29.96 in 5.0 miles ESE 4.6 mph - 0.01 in Rain Light Rain
9:53 AM 34.0°F 33.1°F 96% 29.97 in 4.0 miles Calm Calm - 0.01 in Rain Light Rain
10:53 AM 34.0°F 33.1°F 96% 29.96 in 4.0 miles North 3.5 mph - 0.02 in Rain Light Rain
11:53 AM 34.0°F 33.1°F 96% 29.94 in 6.0 miles NNW 5.8 mph - 0.01 in Rain Light Rain
12:53 PM 34.0°F 33.1°F 96% 29.83 in 7.0 miles SSE 6.9 mph - 0.00 in   Overcast
1:53 PM 35.1°F 33.1°F 92% 29.88 in 5.0 miles NNW 9.2 mph 17.3 mph 0.00 in Rain Light Rain
2:53 PM 34.0°F 33.1°F 96% 29.85 in 2.5 miles Calm Calm - 0.00 in   Overcast
3:37 PM 33.8°F 33.8°F 100% 29.91 in 3.0 miles WNW 3.5 mph - N/A   Overcast
3:53 PM 34.0°F 32.0°F 92% 29.89 in 3.0 miles NW 4.6 mph - N/A   Overcast
4:14 PM 33.8°F 33.8°F 100% 29.92 in 2.5 miles WNW 4.6 mph - N/A   Overcast
4:28 PM 33.8°F 33.8°F 100% 29.92 in 1.5 miles Calm Calm - N/A   Overcast
4:53 PM 34.0°F 33.1°F 96% 29.91 in 2.0 miles West 3.5 mph - N/A   Overcast
5:49 PM 35.6°F 33.8°F 93% 29.92 in 3.0 miles WSW 4.6 mph - N/A   Overcast
5:53 PM 35.1°F 34.0°F 96% 29.91 in 3.0 miles WNW 3.5 mph - N/A   Overcast
6:53 PM 36.0°F 34.0°F 93% 29.92 in 3.0 miles West 6.9 mph - N/A   Overcast
7:18 PM 35.6°F 33.8°F 93% 29.93 in 5.0 miles West 4.6 mph - N/A   Overcast
7:53 PM 36.0°F 34.0°F 93% 29.92 in 5.0 miles West 4.6 mph - N/A   Overcast
8:24 PM 37.4°F 33.8°F 87% 29.94 in 6.0 miles WNW 8.1 mph - N/A   Overcast
8:53 PM 37.0°F 34.0°F 89% 29.93 in 5.0 miles West 6.9 mph - N/A   Overcast
9:01 PM 37.4°F 33.8°F 87% 29.95 in 5.0 miles WNW 6.9 mph - N/A   Overcast
9:53 PM 37.0°F 34.0°F 89% 29.92 in 5.0 miles West 5.8 mph - N/A   Mostly Cloudy
10:53 PM 37.0°F 34.0°F 89% 29.94 in 5.0 miles West 5.8 mph - N/A   Clear
11:53 PM 37.0°F 34.0°F 89% 29.92 in 6.0 miles WNW 4.6 mph - N/A   Clear
Astronomy
Sunrise:07:19 AM (EST) Moon Rise:09:53 AM (EST)1/16
Sunset:04:59 PM (EST) Moon Set:10:49 PM (EST)1/16
Moon Phase
Jan. 16 Jan. 18 Jan. 26 Feb. 03 Feb. 10

Copyright © 2014 The Weather Underground, Inc.